International Skating Union - Official Site

Essent ISU World Allround Championships 2013
February 16-17, 2013

Draw | Lap Times | Index | Classification

Referee: Susan  SANDVIG-SHOBE  (USA)
Starter: Yves  BELANGER  (CAN)
StartTime: EndTime: Air Temp: Ice Temp: Humidity:
16:09 17:29 16.7℃ -9.8℃ 24.4
Result 10000m Men
Rankings as of Feb 17 2013 5:29PM
Rank: No.: Name: Nation: Time: Behind: Points:
1 15 Sven  Kramer NED NED 13:11.86400m - 35.74 - (35.7)
800m - 1:06.94 - (31.2)
1200m - 1:39.03 - (32.0)
1600m - 2:10.28 - (31.2)
2000m - 2:42.15 - (31.8)
2400m - 3:14.10 - (31.9)
2800m - 3:45.93 - (31.8)
3200m - 4:17.81 - (31.8)
3600m - 4:49.69 - (31.8)
4000m - 5:21.40 - (31.7)
4400m - 5:53.13 - (31.7)
4800m - 6:24.67 - (31.5)
5200m - 6:56.51 - (31.8)
5600m - 7:27.98 - (31.4)
6000m - 7:59.46 - (31.4)
6400m - 8:30.77 - (31.3)
6800m - 9:02.21 - (31.4)
7200m - 9:33.57 - (31.3)
7600m - 10:05.03 - (31.4)
8000m - 10:36.39 - (31.3)
8400m - 11:07.80 - (31.4)
8800m - 11:39.15 - (31.3)
9200m - 12:10.31 - (31.1)
9600m - 12:41.10 - (30.7)
10000m - 13:11.86 - (30.7)
39.593
2 2 Bart  Swings BEL BEL 13:11.91400m - 35.44 - (35.4)
800m - 1:07.37 - (31.9)
1200m - 1:39.46 - (32.0)
1600m - 2:11.04 - (31.5)
2000m - 2:42.97 - (31.9)
2400m - 3:14.80 - (31.8)
2800m - 3:46.83 - (32.0)
3200m - 4:18.42 - (31.5)
3600m - 4:50.38 - (31.9)
4000m - 5:22.07 - (31.6)
4400m - 5:53.95 - (31.8)
4800m - 6:25.68 - (31.7)
5200m - 6:57.43 - (31.7)
5600m - 7:28.83 - (31.4)
6000m - 8:00.49 - (31.6)
6400m - 8:32.12 - (31.6)
6800m - 9:03.75 - (31.6)
7200m - 9:35.04 - (31.2)
7600m - 10:06.45 - (31.4)
8000m - 10:37.55 - (31.1)
8400m - 11:08.61 - (31.0)
8800m - 11:39.42 - (30.8)
9200m - 12:10.35 - (30.9)
9600m - 12:41.13 - (30.7)
10000m - 13:11.91 - (30.7)
0.05 39.595
3 19 Håvard  Bøkko NOR NOR 13:15.83400m - 35.36 - (35.3)
800m - 1:07.31 - (31.9)
1200m - 1:39.34 - (32.0)
1600m - 2:11.27 - (31.9)
2000m - 2:42.91 - (31.6)
2400m - 3:14.79 - (31.8)
2800m - 3:46.62 - (31.8)
3200m - 4:18.60 - (31.9)
3600m - 4:50.24 - (31.6)
4000m - 5:22.10 - (31.8)
4400m - 5:53.88 - (31.7)
4800m - 6:25.77 - (31.9)
5200m - 6:57.32 - (31.5)
5600m - 7:28.82 - (31.5)
6000m - 8:00.43 - (31.6)
6400m - 8:32.16 - (31.7)
6800m - 9:03.59 - (31.4)
7200m - 9:34.96 - (31.3)
7600m - 10:06.25 - (31.2)
8000m - 10:37.63 - (31.3)
8400m - 11:08.85 - (31.2)
8800m - 11:40.33 - (31.4)
9200m - 12:11.76 - (31.4)
9600m - 12:43.39 - (31.6)
10000m - 13:15.83 - (32.4)
3.97 39.791
4 22 Sverre  Lunde Pedersen NOR NOR 13:25.65400m - 35.82 - (35.8)
800m - 1:07.58 - (31.7)
1200m - 1:39.96 - (32.3)
1600m - 2:12.23 - (32.2)
2000m - 2:44.70 - (32.4)
2400m - 3:17.00 - (32.3)
2800m - 3:49.53 - (32.5)
3200m - 4:21.67 - (32.1)
3600m - 4:54.18 - (32.5)
4000m - 5:26.89 - (32.7)
4400m - 5:59.22 - (32.3)
4800m - 6:31.55 - (32.3)
5200m - 7:04.02 - (32.4)
5600m - 7:36.31 - (32.3)
6000m - 8:08.48 - (32.1)
6400m - 8:40.47 - (31.9)
6800m - 9:12.43 - (31.9)
7200m - 9:44.37 - (31.9)
7600m - 10:16.18 - (31.8)
8000m - 10:47.88 - (31.7)
8400m - 11:19.46 - (31.5)
8800m - 11:51.13 - (31.6)
9200m - 12:22.73 - (31.6)
9600m - 12:54.15 - (31.4)
10000m - 13:25.65 - (31.5)
13.79 40.282
5 16 Renz  Rotteveel NED NED 13:35.84400m - 35.47 - (35.4)
800m - 1:07.58 - (32.1)
1200m - 1:39.84 - (32.2)
1600m - 2:12.51 - (32.6)
2000m - 2:44.81 - (32.3)
2400m - 3:17.36 - (32.5)
2800m - 3:49.85 - (32.5)
3200m - 4:22.78 - (32.9)
3600m - 4:55.55 - (32.7)
4000m - 5:28.46 - (32.9)
4400m - 6:01.08 - (32.6)
4800m - 6:33.98 - (32.9)
5200m - 7:06.69 - (32.7)
5600m - 7:39.38 - (32.6)
6000m - 8:12.15 - (32.7)
6400m - 8:44.79 - (32.6)
6800m - 9:17.43 - (32.6)
7200m - 9:50.02 - (32.5)
7600m - 10:22.48 - (32.4)
8000m - 10:54.92 - (32.4)
8400m - 11:27.27 - (32.3)
8800m - 11:59.47 - (32.2)
9200m - 12:31.69 - (32.2)
9600m - 13:03.89 - (32.2)
10000m - 13:35.84 - (31.9)
23.98 40.792
6 28 Ivan  Skobrev RUS RUS 13:35.90400m - 35.81 - (35.8)
800m - 1:07.18 - (31.3)
1200m - 1:38.72 - (31.5)
1600m - 2:10.76 - (32.0)
2000m - 2:42.77 - (32.0)
2400m - 3:14.68 - (31.9)
2800m - 3:46.71 - (32.0)
3200m - 4:18.79 - (32.0)
3600m - 4:50.89 - (32.0)
4000m - 5:23.25 - (32.3)
4400m - 5:55.80 - (32.5)
4800m - 6:28.31 - (32.5)
5200m - 7:00.91 - (32.6)
5600m - 7:33.38 - (32.4)
6000m - 8:06.03 - (32.6)
6400m - 8:38.54 - (32.5)
6800m - 9:11.10 - (32.5)
7200m - 9:43.74 - (32.6)
7600m - 10:16.73 - (32.9)
8000m - 10:50.21 - (33.4)
8400m - 11:23.42 - (33.2)
8800m - 11:56.45 - (33.0)
9200m - 12:29.65 - (33.2)
9600m - 13:02.82 - (33.1)
10000m - 13:35.90 - (33.0)
24.04 40.795
7 13 Haralds  Silovs LAT LAT 13:47.38400m - 36.85 - (36.8)
800m - 1:10.26 - (33.4)
1200m - 1:43.82 - (33.5)
1600m - 2:16.79 - (32.9)
2000m - 2:49.98 - (33.1)
2400m - 3:22.73 - (32.7)
2800m - 3:55.68 - (32.9)
3200m - 4:28.38 - (32.7)
3600m - 5:01.06 - (32.6)
4000m - 5:33.72 - (32.6)
4400m - 6:06.63 - (32.9)
4800m - 6:39.50 - (32.8)
5200m - 7:12.33 - (32.8)
5600m - 7:45.08 - (32.7)
6000m - 8:17.86 - (32.7)
6400m - 8:50.58 - (32.7)
6800m - 9:23.07 - (32.4)
7200m - 9:55.56 - (32.5)
7600m - 10:28.07 - (32.5)
8000m - 11:00.80 - (32.7)
8400m - 11:33.60 - (32.7)
8800m - 12:06.77 - (33.1)
9200m - 12:40.08 - (33.3)
9600m - 13:13.90 - (33.8)
10000m - 13:47.38 - (33.4)
35.52 41.369
8 23 Zbigniew  Brodka POL POL 14:09.29400m - 37.03 - (37.0)
800m - 1:10.44 - (33.4)
1200m - 1:43.71 - (33.2)
1600m - 2:17.38 - (33.6)
2000m - 2:50.19 - (32.8)
2400m - 3:23.40 - (33.2)
2800m - 3:56.27 - (32.8)
3200m - 4:29.72 - (33.4)
3600m - 5:03.20 - (33.4)
4000m - 5:36.76 - (33.5)
4400m - 6:10.03 - (33.2)
4800m - 6:43.82 - (33.7)
5200m - 7:17.82 - (34.0)
5600m - 7:51.72 - (33.9)
6000m - 8:25.90 - (34.1)
6400m - 9:00.21 - (34.3)
6800m - 9:34.93 - (34.7)
7200m - 10:09.80 - (34.8)
7600m - 10:44.51 - (34.7)
8000m - 11:18.92 - (34.4)
8400m - 11:53.36 - (34.4)
8800m - 12:27.70 - (34.3)
9200m - 13:02.00 - (34.3)
9600m - 13:35.91 - (33.9)
10000m - 14:09.29 - (33.3)
57.43 42.464